[[{"header":{"parameterUnit":"m.s-1","parameterCategory":1,"la1":30.2991,"la2":30.254,"lo1":-89.0895,"lo2":-89.0444,"dy":0.0017,"dx":0.0017,"nx":28,"ny":28,"refTime":"2024-11-27T03:00:00:Z","depth":0,"parameterNumber":2,"parameterNumberName":"U-component_of_WINDS"},"data":[0,0,0,0,0,0,0,0,0,0,0,0,0,0,0,0,0,0,0,0,0,0,0,0,0,0,0,0,0,0,0,0,0,0,0,0,0,0,0,0,0,0,0,0,0,0,0,0,0,0,0,0,0,0,0,0,0,0,-0.1061,-0.1062,0,-0.1115,-0.1115,-0.1116,-0.1138,-0.1137,-0.1137,-0.1137,-0.1194,-0.1196,-0.1197,0,0,0,0,0,0,0,0,0,0,0,0,0,-0.0979,-0.098,-0.1061,-0.1062,-0.1063,-0.1115,-0.1115,-0.1116,-0.1138,-0.1137,-0.1137,-0.1137,-0.1193,-0.1195,-0.1197,0,0,0,0,0,0,0,0,0,0,0,0,0,-0.1022,-0.0981,-0.1061,-0.108,-0.1082,-0.1115,-0.1115,-0.1116,-0.1138,-0.1137,-0.1137,-0.1137,-0.1193,-0.1195,-0.1198,-0.1217,0,0,-0.1205,-0.1206,0,0,0,0,0,0,0,0,-0.1019,-0.1025,-0.1076,-0.1078,-0.1081,-0.1119,-0.1107,-0.115,-0.1138,-0.1116,-0.1137,-0.1137,-0.1169,-0.1174,-0.1184,-0.1219,-0.1222,-0.1205,-0.1207,-0.1208,-0.1209,0,0,0,0,0,0,0,-0.1016,-0.1023,-0.1083,-0.1077,-0.108,-0.1086,-0.1091,-0.1115,-0.1143,-0.1118,-0.112,-0.1126,-0.1171,-0.1182,-0.1186,-0.1223,-0.1205,-0.1207,-0.1209,-0.121,-0.1275,-0.1275,0,0,0,0,0,0,-0.101,-0.102,-0.1081,-0.1084,-0.1049,-0.1087,-0.1094,-0.1107,-0.1143,-0.1149,-0.1126,-0.1127,-0.1178,-0.1183,-0.1188,-0.1212,-0.1208,-0.121,-0.1212,-0.1275,-0.1275,-0.1276,0,0,0,0,0,0,-0.1008,-0.1015,-0.1079,-0.1053,-0.1061,-0.1089,-0.1104,-0.1108,-0.112,-0.1149,-0.1154,-0.1132,-0.1178,-0.1184,-0.1209,-0.1215,-0.1211,-0.1213,-0.1275,-0.1275,-0.1275,-0.1261,0,0,0,0,0,0,-0.1006,-0.1015,-0.1022,-0.1053,-0.1062,-0.1099,-0.1104,-0.111,-0.1124,-0.1125,-0.1156,-0.1161,-0.1178,-0.1205,-0.1211,-0.1218,-0.1215,-0.1274,-0.1275,-0.1275,-0.1261,-0.1261,-0.1261,0,0,0,0,0,-0.1003,-0.1017,-0.1022,-0.103,-0.1072,-0.1099,-0.1105,-0.1123,-0.1124,-0.1132,-0.115,-0.116,-0.1213,-0.1208,-0.1215,-0.1222,-0.1274,-0.1275,-0.1275,-0.1262,-0.1261,-0.1261,0,0,0,0,0,0,-0.0987,-0.1021,-0.1028,-0.1052,-0.1072,-0.1102,-0.1113,-0.1122,-0.1144,-0.1144,-0.1167,-0.1174,-0.1196,-0.1212,-0.1205,-0.1242,-0.1244,-0.1246,-0.1231,-0.1231,-0.1231,-0.1227,-0.1217,0,0,0,0,0,-0.0986,-0.1005,-0.1033,-0.1052,-0.1061,-0.1085,-0.1098,-0.111,-0.1132,-0.1141,-0.1162,-0.1184,-0.1205,-0.1219,-0.124,-0.1263,-0.127,-0.1272,-0.1272,-0.1271,-0.1273,-0.1286,-0.1287,-0.1278,-0.1278,-0.1278,0,0,-0.0985,-0.1006,-0.1016,-0.1049,-0.1066,-0.1085,-0.1093,-0.1113,-0.1127,-0.1145,-0.1169,-0.1185,-0.1211,-0.1234,-0.1246,-0.1248,-0.1277,-0.1272,-0.1271,-0.1273,-0.1286,-0.1287,-0.1288,-0.1278,-0.1278,-0.1278,0,0,-0.0992,-0.101,-0.1026,-0.1043,-0.1069,-0.1085,-0.1088,-0.1117,-0.1128,-0.1152,-0.1166,-0.1183,-0.122,-0.1238,-0.1251,-0.1263,-0.1273,-0.127,-0.1269,-0.1281,-0.1282,-0.1283,-0.1287,-0.1288,-0.1271,-0.1271,-0.1271,0,-0.0988,-0.1016,-0.1034,-0.1053,-0.1067,-0.1083,-0.11,-0.1116,-0.1147,-0.1157,-0.1158,-0.1203,-0.1222,-0.125,-0.1252,-0.1263,-0.1268,-0.1267,-0.128,-0.1281,-0.1282,-0.1286,-0.1288,-0.1271,-0.1271,-0.1271,-0.1271,0,-0.1009,-0.1028,-0.1039,-0.1068,-0.1083,-0.1101,-0.1122,-0.1135,-0.1146,-0.1161,-0.1185,-0.1208,-0.1234,-0.1241,-0.1252,-0.127,-0.127,-0.1276,-0.1278,-0.1282,-0.1286,-0.1288,-0.127,-0.127,-0.127,-0.127,0,0,-0.1009,-0.1047,-0.105,-0.1063,-0.1092,-0.1108,-0.1126,-0.115,-0.1161,-0.1182,-0.1198,-0.1228,-0.1232,-0.1248,-0.1261,-0.1271,-0.1279,-0.1275,-0.1276,-0.1275,-0.13,-0.1296,-0.1298,-0.1285,-0.1286,-0.1286,-0.1298,0,-0.102,-0.1053,-0.107,-0.1096,-0.1114,-0.1128,-0.1144,-0.1164,-0.1178,-0.1196,-0.1212,-0.1233,-0.1237,-0.1247,-0.1258,-0.1276,-0.1284,-0.1275,-0.1301,-0.1302,-0.1294,-0.13,-0.1296,-0.1306,-0.13,-0.13,-0.13,0,-0.1038,-0.1058,-0.1085,-0.1111,-0.1119,-0.1133,-0.1157,-0.1173,-0.1195,-0.1205,-0.1221,-0.1234,-0.1254,-0.1254,-0.1282,-0.1275,-0.1287,-0.1297,-0.1298,-0.1301,-0.1302,-0.1304,-0.131,-0.1312,-0.1303,-0.1303,-0.1303,0,-0.1035,-0.1069,-0.1089,-0.11,-0.1131,-0.114,-0.1153,-0.1175,-0.1188,-0.1209,-0.1217,-0.124,-0.1252,-0.127,-0.1288,-0.1286,-0.1313,-0.1316,-0.1322,-0.1322,-0.1328,-0.1328,-0.1336,-0.1335,-0.1335,-0.1335,-0.1335,0,-0.1046,-0.1063,-0.1088,-0.1101,-0.112,-0.1138,-0.1156,-0.117,-0.119,-0.1205,-0.122,-0.1234,-0.1257,-0.1275,-0.1289,-0.1309,-0.1315,-0.1323,-0.1327,-0.1322,-0.1321,-0.1331,-0.1331,-0.1335,-0.1335,-0.1335,-0.1335,0,-0.1047,-0.1065,-0.1088,-0.1114,-0.1121,-0.1134,-0.1157,-0.117,-0.1184,-0.1204,-0.121,-0.1233,-0.1254,-0.1274,-0.1302,-0.1312,-0.1333,-0.1337,-0.1325,-0.1327,-0.1333,-0.1332,-0.1348,-0.1351,-0.1347,-0.1347,-0.1347,0,-0.1053,-0.1066,-0.1093,-0.1104,-0.1117,-0.1135,-0.1148,-0.1166,-0.118,-0.1205,-0.1215,-0.1237,-0.1256,-0.1289,-0.1308,-0.133,-0.1335,-0.1339,-0.1339,-0.1333,-0.1336,-0.1335,-0.1336,-0.134,-0.1339,-0.1339,-0.1339,0,-0.1062,-0.107,-0.1088,-0.1109,-0.1124,-0.1141,-0.1159,-0.1168,-0.1189,-0.1203,-0.1225,-0.1239,-0.1267,-0.1289,-0.1313,-0.1327,-0.1337,-0.1339,-0.1342,-0.1338,-0.133,-0.1334,-0.1325,-0.1339,-0.1339,-0.1339,-0.1339,-0.1339,-0.1066,-0.1077,-0.1098,-0.1117,-0.1133,-0.1149,-0.1162,-0.1177,-0.1195,-0.1219,-0.1229,-0.1251,-0.1272,-0.1304,-0.1318,-0.1335,-0.1337,-0.1341,-0.1342,-0.1343,-0.1342,-0.1326,-0.134,-0.134,-0.134,-0.134,-0.134,0,-0.1075,-0.1089,-0.1106,-0.1131,-0.1146,-0.1153,-0.1173,-0.1185,-0.1204,-0.1222,-0.124,-0.1264,-0.1284,-0.1305,-0.1327,-0.1337,-0.1342,-0.1342,-0.1342,-0.1345,-0.1339,-0.1335,-0.1337,-0.1337,-0.1337,-0.1337,-0.1337,-0.1337,-0.1082,-0.1102,-0.1112,-0.1139,-0.1153,-0.1174,-0.1185,-0.12,-0.1214,-0.124,-0.1257,-0.127,-0.1289,-0.1312,-0.1332,-0.1337,-0.1345,-0.1344,-0.135,-0.1345,-0.1345,-0.1345,-0.1341,-0.1345,-0.1345,-0.1354,-0.1354,-0.1355]},{"header":{"parameterUnit":"m.s-1","parameterCategory":1,"la1":30.2991,"la2":30.254,"lo1":-89.0895,"lo2":-89.0444,"dy":0.0017,"dx":0.0017,"nx":28,"ny":28,"refTime":"2024-11-27T03:00:00:Z","depth":0,"parameterNumber":3,"parameterNumberName":"V-component_of_WINDS"},"data":[0,0,0,0,0,0,0,0,0,0,0,0,0,0,0,0,0,0,0,0,0,0,0,0,0,0,0,0,0,0,0,0,0,0,0,0,0,0,0,0,0,0,0,0,0,0,0,0,0,0,0,0,0,0,0,0,0,0,-6.7138,-6.714,0,-6.7296,-6.7298,-6.73,-6.7242,-6.7238,-6.7235,-6.7231,-6.7388,-6.7396,-6.7403,0,0,0,0,0,0,0,0,0,0,0,0,0,-6.6781,-6.6788,-6.7138,-6.714,-6.7142,-6.7296,-6.7298,-6.73,-6.7242,-6.7238,-6.7234,-6.723,-6.7386,-6.7395,-6.7404,0,0,0,0,0,0,0,0,0,0,0,0,0,-6.6937,-6.679,-6.7138,-6.7132,-6.7133,-6.7296,-6.7298,-6.7301,-6.7243,-6.7238,-6.7233,-6.7228,-6.7383,-6.7394,-6.7405,-6.7581,0,0,-6.7439,-6.7444,0,0,0,0,0,0,0,0,-6.6928,-6.695,-6.7131,-6.7132,-6.7134,-6.7244,-6.723,-6.7395,-6.7245,-6.7201,-6.7231,-6.7225,-6.7344,-6.7358,-6.74,-6.7589,-6.7595,-6.744,-6.7447,-6.7452,-6.7455,0,0,0,0,0,0,0,-6.6918,-6.6943,-6.72,-6.7133,-6.7135,-6.712,-6.7136,-6.7261,-6.7301,-6.7205,-6.7201,-6.7221,-6.7344,-6.7389,-6.7403,-6.7598,-6.744,-6.745,-6.7457,-6.7461,-6.794,-6.7945,0,0,0,0,0,0,-6.6907,-6.6935,-6.7195,-6.7205,-6.7016,-6.713,-6.7149,-6.7214,-6.7299,-6.7307,-6.7225,-6.7217,-6.7372,-6.739,-6.7408,-6.7621,-6.7452,-6.7462,-6.7469,-6.7934,-6.7941,-6.7947,0,0,0,0,0,0,-6.6899,-6.6931,-6.7189,-6.7069,-6.7101,-6.7142,-6.7216,-6.722,-6.7265,-6.7315,-6.7321,-6.7264,-6.7369,-6.7392,-6.7539,-6.7625,-6.7467,-6.7478,-6.7927,-6.7936,-6.7944,-6.8047,0,0,0,0,0,0,-6.6889,-6.6928,-6.6997,-6.7071,-6.7107,-6.7319,-6.7221,-6.7227,-6.7285,-6.7276,-6.7353,-6.736,-6.7366,-6.7523,-6.755,-6.7638,-6.7486,-6.7919,-6.7931,-6.7941,-6.8037,-6.8059,-6.8078,0,0,0,0,0,-6.6877,-6.7018,-6.7001,-6.7032,-6.7194,-6.7324,-6.7345,-6.7351,-6.7292,-6.7361,-6.7393,-6.7358,-6.7611,-6.7538,-6.7569,-6.7661,-6.7914,-6.7927,-6.794,-6.8027,-6.8054,-6.8077,0,0,0,0,0,0,-6.6951,-6.7028,-6.7009,-6.7179,-6.7246,-6.7314,-6.7401,-6.7379,-6.7462,-6.7451,-6.7452,-6.747,-6.7622,-6.7656,-6.7573,-6.7837,-6.7754,-6.7774,-6.7809,-6.7835,-6.7856,-6.7844,-6.7496,0,0,0,0,0,-6.6988,-6.7088,-6.7149,-6.7293,-6.7328,-6.7359,-6.7416,-6.7415,-6.7483,-6.751,-6.7553,-6.762,-6.7714,-6.7776,-6.7866,-6.8041,-6.8057,-6.812,-6.814,-6.8157,-6.8174,-6.827,-6.8299,-6.7991,-6.7991,-6.7991,0,0,-6.7063,-6.7118,-6.7181,-6.731,-6.7361,-6.7464,-6.7383,-6.7495,-6.7572,-6.7527,-6.7669,-6.7703,-6.7777,-6.7939,-6.8012,-6.7972,-6.8263,-6.8174,-6.8187,-6.8196,-6.8287,-6.8316,-6.8342,-6.8,-6.7999,-6.7997,0,0,-6.7254,-6.7306,-6.7432,-6.7486,-6.7566,-6.7586,-6.7616,-6.7688,-6.771,-6.7853,-6.7822,-6.7911,-6.8074,-6.8129,-6.8178,-6.8391,-6.8362,-6.842,-6.8528,-6.8621,-6.8645,-6.8667,-6.8743,-6.877,-6.8437,-6.8437,-6.8437,0,-6.7338,-6.7494,-6.7499,-6.7615,-6.7672,-6.7639,-6.7766,-6.7817,-6.7922,-6.7962,-6.7915,-6.812,-6.8167,-6.8342,-6.8394,-6.8435,-6.8469,-6.8411,-6.8641,-6.8663,-6.8683,-6.8756,-6.8785,-6.8444,-6.8443,-6.8442,-6.8441,0,-6.7593,-6.7702,-6.7793,-6.7898,-6.7966,-6.8086,-6.8109,-6.8176,-6.8169,-6.8194,-6.834,-6.8396,-6.8497,-6.8538,-6.8531,-6.8712,-6.8684,-6.864,-6.8557,-6.8719,-6.8788,-6.8815,-6.8453,-6.8451,-6.8449,-6.8447,0,0,-6.7835,-6.7942,-6.7975,-6.8023,-6.8109,-6.8192,-6.8311,-6.8412,-6.847,-6.8543,-6.8643,-6.8782,-6.8742,-6.8798,-6.8797,-6.8878,-6.9044,-6.8824,-6.8826,-6.8863,-6.9247,-6.9281,-6.9313,-6.9025,-6.9031,-6.9035,-6.9241,0,-6.8033,-6.8245,-6.8253,-6.8445,-6.8546,-6.8515,-6.8619,-6.8682,-6.8708,-6.8796,-6.8823,-6.8923,-6.8862,-6.8896,-6.8975,-6.9007,-6.9121,-6.8992,-6.9117,-6.9122,-6.9101,-6.9349,-6.9384,-6.9576,-6.9268,-6.9272,-6.9276,0,-6.8293,-6.8377,-6.858,-6.8653,-6.8695,-6.8789,-6.8882,-6.8967,-6.9037,-6.905,-6.9114,-6.9101,-6.9222,-6.9134,-6.93,-6.9212,-6.9264,-6.9287,-6.9295,-6.9307,-6.9209,-6.9368,-6.9638,-6.9667,-6.9318,-6.9314,-6.9311,0,-6.845,-6.8613,-6.8756,-6.8797,-6.8886,-6.8952,-6.8992,-6.9058,-6.9118,-6.9199,-6.9238,-6.9331,-6.9382,-6.9454,-6.9467,-6.9402,-6.9633,-6.9547,-6.9647,-6.9647,-6.9697,-6.9694,-6.998,-6.973,-6.9729,-6.9729,-6.9728,0,-6.8671,-6.8796,-6.8828,-6.8916,-6.9056,-6.9063,-6.9201,-6.9235,-6.9294,-6.9387,-6.9366,-6.9453,-6.9464,-6.9554,-6.9565,-6.9701,-6.9723,-6.9737,-6.9738,-6.974,-6.9738,-6.9773,-6.9761,-6.9736,-6.9735,-6.9733,-6.9732,0,-6.887,-6.8896,-6.905,-6.9122,-6.9143,-6.9243,-6.9303,-6.9387,-6.9411,-6.9529,-6.9557,-6.9594,-6.97,-6.9719,-6.9842,-6.9849,-7.0012,-6.9999,-6.9989,-6.9988,-7.0087,-7.0078,-7.0406,-7.045,-7.0171,-7.0173,-7.0175,0,-6.901,-6.9106,-6.9189,-6.9251,-6.9294,-6.9394,-6.9456,-6.9467,-6.9533,-6.9622,-6.9694,-6.9798,-6.9881,-7.005,-7.0087,-7.0181,-7.0171,-7.0279,-7.0185,-7.0183,-7.0173,-7.0168,-7.0178,-7.0298,-7.0301,-7.0303,-7.0305,0,-6.9255,-6.9264,-6.9355,-6.9452,-6.9528,-6.9604,-6.9676,-6.9727,-6.9748,-6.9822,-6.9931,-6.9996,-7.0123,-7.0225,-7.032,-7.0358,-7.0336,-7.0335,-7.0363,-7.0365,-7.0356,-7.0363,-7.0039,-7.0327,-7.0325,-7.0323,-7.0322,-7.0321,-6.9429,-6.9514,-6.9586,-6.9689,-6.9745,-6.9813,-6.9896,-6.9931,-7.0022,-7.0128,-7.0129,-7.0247,-7.0316,-7.0441,-7.0485,-7.0577,-7.0543,-7.0584,-7.0594,-7.0604,-7.0614,-7.0341,-7.0594,-7.0594,-7.0593,-7.0593,-7.0592,0,-6.9674,-6.9719,-6.9814,-6.9917,-6.9998,-6.9971,-7.005,-7.0119,-7.0225,-7.0291,-7.0375,-7.0499,-7.0599,-7.0644,-7.0742,-7.0807,-7.0799,-7.0833,-7.0828,-7.0838,-7.0639,-7.0605,-7.0838,-7.0838,-7.0837,-7.0837,-7.0837,-7.0837,-6.9811,-6.9953,-6.9971,-7.014,-7.0184,-7.0302,-7.0349,-7.0412,-7.0465,-7.0607,-7.069,-7.072,-7.0778,-7.088,-7.097,-7.0981,-7.1018,-7.1057,-7.1063,-7.0876,-7.0851,-7.0828,-7.0796,-7.1065,-7.1065,-7.1254,-7.1255,-7.1257]}]]